| time (UTC) | temp F | wind direction | speed MPH | gust MPH | rain 1hr in | rain 24hr in | rain mn in | humidity % | barometer mb |
| 20260502161534 | 85 | 20 | 4.0 | 10.0 | 0.00 | 0.00 | 0.00 | 26 | 1013.2 |
| 20260502151504 | 77 | 288 | 1.0 | 2.0 | 0.00 | 0.00 | 0.00 | 23 | 1013.1 |
| 20260502123020 | 68 | 313 | 1.0 | 3.0 | 0.00 | 0.00 | 0.00 | 28 | 1011.1 |
| 20260502121518 | 68 | 195 | 1.0 | 2.0 | 0.00 | 0.00 | 0.00 | 27 | 1011.1 |
| 20260502114513 | 68 | 269 | 1.0 | 4.0 | 0.00 | 0.00 | 0.00 | 26 | 1010.8 |
| 20260502113007 | 70 | 291 | 0.0 | 4.0 | 0.00 | 0.00 | 0.00 | 25 | 1010.8 |
| 20260502110009 | 72 | 197 | 1.0 | 8.0 | 0.00 | 0.00 | 0.00 | 27 | 1010.6 |
| 20260502104523 | 73 | 359 | 3.0 | 5.0 | 0.00 | 0.00 | 0.00 | 26 | 1010.5 |
| 20260502103023 | 73 | 11 | 3.0 | 6.0 | 0.00 | 0.00 | 0.00 | 26 | 1010.5 |
| 20260502091512 | 70 | 340 | 4.0 | 7.0 | 0.00 | 0.00 | 0.00 | 26 | 1010.0 |
| 20260502071512 | 74 | 179 | 0.0 | 2.0 | 0.00 | 0.00 | 0.00 | 22 | 1010.1 |
| 20260502064533 | 75 | 174 | 1.0 | 2.0 | 0.00 | 0.00 | 0.00 | 21 | 1009.9 |
| 20260502063029 | 76 | 200 | 1.0 | 3.0 | 0.00 | 0.00 | 0.00 | 21 | 1010.0 |
| 20260502060021 | 76 | 171 | 1.0 | 3.0 | 0.00 | 0.00 | 0.00 | 20 | 1009.8 |
| 20260502054522 | 78 | 191 | 0.0 | 3.0 | 0.00 | 0.00 | 0.00 | 19 | 1009.8 |
| 20260502053020 | 78 | 177 | 2.0 | 3.0 | 0.00 | 0.00 | 0.00 | 19 | 1009.7 |
| 20260502051521 | 77 | 172 | 2.0 | 3.0 | 0.00 | 0.00 | 0.00 | 19 | 1009.7 |
| 20260502050028 | 78 | 196 | 1.0 | 2.0 | 0.00 | 0.00 | 0.00 | 19 | 1009.7 |
| 20260502044512 | 79 | 175 | 2.0 | 4.0 | 0.00 | 0.00 | 0.00 | 18 | 1009.5 |
| 20260502043026 | 80 | 167 | 2.0 | 4.0 | 0.00 | 0.00 | 0.00 | 18 | 1009.3 |
| 20260502041528 | 80 | 176 | 1.0 | 2.0 | 0.00 | 0.00 | 0.00 | 18 | 1009.2 |
| 20260502040022 | 79 | 172 | 0.0 | 2.0 | 0.00 | 0.00 | 0.00 | 18 | 1008.9 |
| 20260502034523 | 81 | 172 | 0.0 | 2.0 | 0.00 | 0.00 | 0.00 | 18 | 1008.8 |
| 20260502033022 | 82 | 198 | 1.0 | 2.0 | 0.00 | 0.00 | 0.00 | 18 | 1008.7 |
| 20260502030024 | 84 | 214 | 0.0 | 2.0 | 0.00 | 0.00 | 0.00 | 17 | 1008.2 |
| 20260502024513 | 85 | 217 | 0.0 | 2.0 | 0.00 | 0.00 | 0.00 | 16 | 1008.0 |
| 20260502023028 | 86 | 221 | 1.0 | 2.0 | 0.00 | 0.00 | 0.00 | 14 | 1008.0 |
| 20260502021525 | 87 | 266 | 1.0 | 2.0 | 0.00 | 0.00 | 0.00 | 14 | 1007.8 |
| 20260502020024 | 88 | 260 | 1.0 | 4.0 | 0.00 | 0.00 | 0.00 | 13 | 1007.6 |
| 20260502014529 | 88 | 279 | 2.0 | 5.0 | 0.00 | 0.00 | 0.00 | 14 | 1007.6 |
| 20260502013023 | 89 | 246 | 1.0 | 5.0 | 0.00 | 0.00 | 0.00 | 16 | 1007.6 |
| 20260502011522 | 90 | 269 | 3.0 | 5.0 | 0.00 | 0.00 | 0.00 | 15 | 1007.6 |
| 20260502004541 | 90 | 215 | 0.0 | 6.0 | 0.00 | 0.00 | 0.00 | 16 | 1007.7 |
| 20260502003026 | 90 | 208 | 3.0 | 6.0 | 0.00 | 0.00 | 0.00 | 16 | 1007.7 |
| 20260502001532 | 90 | 323 | 3.0 | 7.0 | 0.00 | 0.00 | 0.00 | 16 | 1007.8 |
| 20260502000029 | 90 | 350 | 4.0 | 11.0 | 0.00 | 0.00 | 0.00 | 16 | 1007.9 |
| 20260501234524 | 92 | 360 | 2.0 | 6.0 | 0.00 | 0.00 | 0.00 | 16 | 1008.0 |
| 20260501233023 | 90 | 300 | 2.0 | 7.0 | 0.00 | 0.00 | 0.00 | 16 | 1008.2 |
| 20260501231525 | 91 | 285 | 4.0 | 11.0 | 0.00 | 0.00 | 0.00 | 15 | 1008.2 |
| 20260501230024 | 91 | 285 | 4.0 | 10.0 | 0.00 | 0.00 | 0.00 | 17 | 1008.3 |
| 20260501223022 | 90 | 329 | 3.0 | 7.0 | 0.00 | 0.00 | 0.00 | 20 | 1008.6 |
| 20260501221528 | 90 | 268 | 5.0 | 8.0 | 0.00 | 0.00 | 0.00 | 21 | 1008.8 |
| 20260501220032 | 90 | 274 | 5.0 | 9.0 | 0.00 | 0.00 | 0.00 | 22 | 1009.0 |
| 20260501214518 | 90 | 273 | 3.0 | 6.0 | 0.00 | 0.00 | 0.00 | 22 | 1009.2 |
| 20260501213028 | 89 | 129 | 4.0 | 8.0 | 0.00 | 0.00 | 0.00 | 21 | 1009.5 |
| 20260501211509 | 90 | 305 | 4.0 | 10.0 | 0.00 | 0.00 | 0.00 | 20 | 1009.9 |
| 20260501210017 | 87 | 266 | 2.0 | 8.0 | 0.00 | 0.00 | 0.00 | 22 | 1010.0 |
| 20260501204526 | 89 | 282 | 4.0 | 9.0 | 0.00 | 0.00 | 0.00 | 21 | 1010.1 |
| 20260501203019 | 87 | 134 | 2.0 | 16.0 | 0.00 | 0.00 | 0.00 | 22 | 1010.1 |
| 20260501201523 | 87 | 257 | 3.0 | 7.0 | 0.00 | 0.00 | 0.00 | 23 | 1010.4 |
| 20260501200020 | 85 | 1 | 2.0 | 8.0 | 0.00 | 0.00 | 0.00 | 25 | 1010.4 |
| 20260501193015 | 87 | 84 | 3.0 | 4.0 | 0.00 | 0.00 | 0.00 | 24 | 1010.9 |
| 20260501191510 | 86 | 146 | 3.0 | 7.0 | 0.00 | 0.00 | 0.00 | 24 | 1011.1 |
| 20260501190010 | 86 | 122 | 4.0 | 7.0 | 0.00 | 0.00 | 0.00 | 26 | 1011.4 |
| 20260501184521 | 83 | 228 | 1.0 | 6.0 | 0.00 | 0.00 | 0.00 | 28 | 1011.5 |
| 20260501183022 | 83 | 240 | 2.0 | 7.0 | 0.00 | 0.00 | 0.00 | 27 | 1011.7 |
| 20260501181520 | 83 | 257 | 2.0 | 4.0 | 0.00 | 0.00 | 0.00 | 27 | 1011.8 |
| 20260501180030 | 80 | 162 | 1.0 | 8.0 | 0.00 | 0.00 | 0.00 | 29 | 1012.0 |
| 20260501174525 | 81 | 218 | 2.0 | 6.0 | 0.00 | 0.00 | 0.00 | 30 | 1012.0 |
| 20260501173021 | 80 | 345 | 2.0 | 7.0 | 0.00 | 0.00 | 0.00 | 31 | 1012.2 |
| 20260501171522 | 79 | 271 | 3.0 | 7.0 | 0.00 | 0.00 | 0.00 | 31 | 1012.2 |
| 20260501170022 | 79 | 284 | 3.0 | 7.0 | 0.00 | 0.00 | 0.00 | 31 | 1012.3 |
| 20260501164522 | 79 | 159 | 1.0 | 5.0 | 0.00 | 0.00 | 0.00 | 32 | 1012.3 |
| 20260501163024 | 76 | 280 | 1.0 | 6.0 | 0.00 | 0.00 | 0.00 | 34 | 1012.2 |